Location: Prague
(50.0830°N, 14.4670°E)
Time: 11:28:13
(UTC+01:00)

Oscar 11 - Pass Details

Date: 08 December 2021
Orbit: 611 x 625 km, 97.6° (Epoch: 23 January)

Event Time Altitude Azimuth Distance (km) Brightness Sun altitude
Rises 18:02:18 0° 220° (SW) 2,900 11.4 -18.5°
Reaches altitude 10° 18:06:02 10° 254° (WSW) 2,002 10.9 -19.1°
Maximum altitude 18:07:32 12° 274° (W) 1,903 10.6 -19.4°
Drops below altitude 10° 18:09:01 10° 294° (WNW) 2,008 10.4 -19.6°
Sets 18:12:48 0° 328° (NNW) 2,922 10.8 -20.2°
